User: anonymous   Login
Location: Bittkow
(50.3000°N, 19.0000°E)
Time: 10:59:19
(UTC+00:00)
Language:

Cosmos 389 Rocket - Orbit

View from above orbital plane
View from above orbital plane
View from above satellite
View from above satellite

Ground track
Ground track

The orbit data is extracted from the following two-line orbital elements,

1  4814U 70113B   20329.95135129 +.00002770 +00000-0 +77971-4 0  9991
2  4814 081.1405 323.8603 0025469 078.9387 281.4715 15.35758456727767
Epoch (UTC): 24 November 2020 22:49:56
Eccentricity: 0.0025469
inclination: 81.1405°
perigee height: 441 km
apogee height: 476 km
right ascension of ascending node: 323.8603°
argument of perigee: 78.9387°
revolutions per day: 15.35758456
mean anomaly at epoch: 281.4715°
orbit number at epoch: 72776

The dashed part of the orbit path shows where the satellite is in the earth's shadow,  

DLR